Cincinnati, OH

4:02 PM EDT on August 28, 2016 (GMT -0400)
Cincinnati Municipal-Lunken

Weather History for KLUK - March, 2014

Change the Weather History Date:

Saturday, March 1, 2014

  Actual Average Record
Temperature  
Mean Temperature 38 °F -  
Max Temperature 52 °F 50 °F 73 °F (1976)
Min Temperature 24 °F 28 °F 8 °F (1980)
Degree Days  
Heating Degree Days 27    
Moisture  
Dew Point 27 °F    
Average Humidity 64    
Maximum Humidity 78    
Minimum Humidity 44    
Precipitation  
Precipitation 0.00 in - - ()
Sea Level Pressure  
Sea Level Pressure 30.16 in    
Wind  
Wind Speed 2 mph (SW)    
Max Wind Speed 10 mph    
Max Gust Speed -    
Visibility 10 miles    
Events      
Averages and records for this station are not official NWS values.
T = Trace of Precipitation, MM = Missing Value Source: NWS Daily Summary

Daily Weather History Graph

Daily Weather History Graph

Search for Another Location

Airport or City:

Trip Planner

Search our weather history database for the weather conditions in past years. The results will help you decide how hot, cold, wet, or windy it might be!

Date:

Astronomy

Mar. 01, 2014 Rise Set
Actual Time 7:10 AM EST 6:30 PM EST
Civil Twilight 6:43 AM EST 6:57 PM EST
Nautical Twilight 6:12 AM EST 7:28 PM EST
Astronomical Twilight 5:41 AM EST 7:59 PM EST
Moon 7:03 AM EST (3/1) 7:15 PM EST (3/1)
Length of Visible Light 12h 13m
Length of Day
11h 20m
New Moon, 0% of the Moon is Illuminated
Mar 1
New Moon
Mar 8
First Quarter
Mar 16
Full
Mar 23
Last Quarter
Mar 30
New

Hourly Weather History & Observations

Time (EST) Temp. Windchill Dew Point Humidity Pressure Visibility Wind Dir Wind Speed Gust Speed Precip Events Conditions
12:53 AM 24.1 °F - 18.0 °F 77% 30.14 in 10.0 mi Calm Calm - N/A   Clear
1:53 AM 25.0 °F - 17.1 °F 72% 30.13 in 10.0 mi Calm Calm - N/A   Scattered Clouds
2:53 AM 25.0 °F - 18.0 °F 75% 30.12 in 10.0 mi Calm Calm - N/A   Mostly Cloudy
3:53 AM 27.0 °F - 19.9 °F 75% 30.13 in 10.0 mi Calm Calm - N/A   Overcast
4:53 AM 28.9 °F - 19.9 °F 69% 30.14 in 10.0 mi Calm Calm - N/A   Overcast
5:53 AM 28.9 °F - 23.0 °F 78% 30.15 in 10.0 mi Calm Calm - N/A   Overcast
6:53 AM 28.9 °F - 23.0 °F 78% 30.16 in 10.0 mi Calm Calm - N/A   Overcast
7:53 AM 30.9 °F - 24.1 °F 76% 30.19 in 10.0 mi Calm Calm - N/A   Overcast
8:53 AM 33.1 °F - 25.0 °F 72% 30.21 in 10.0 mi Calm Calm - 0.00 in   Overcast
9:53 AM 35.1 °F - 26.1 °F 70% 30.22 in 10.0 mi Calm Calm - N/A   Overcast
10:53 AM 39.0 °F - 27.0 °F 62% 30.22 in 10.0 mi Calm Calm - N/A   Overcast
11:53 AM 46.0 °F 43.1 °F 28.9 °F 51% 30.21 in 10.0 mi South 5.8 mph - N/A   Overcast
12:53 PM 48.0 °F - 28.0 °F 46% 30.18 in 10.0 mi SW 6.9 mph - N/A   Overcast
1:53 PM 48.9 °F - 28.9 °F 46% 30.17 in 10.0 mi SW 5.8 mph - N/A   Overcast
2:53 PM 51.1 °F - 30.0 °F 44% 30.14 in 10.0 mi SSW 5.8 mph - N/A   Partly Cloudy
3:53 PM 52.0 °F - 32.0 °F 47% 30.12 in 10.0 mi SW 10.4 mph - N/A   Clear
4:53 PM 50.0 °F - 32.0 °F 50% 30.13 in 10.0 mi SW 6.9 mph - N/A   Partly Cloudy
5:53 PM 48.9 °F - 34.0 °F 56% 30.13 in 10.0 mi SSW 6.9 mph - N/A   Overcast
6:53 PM 48.0 °F - 34.0 °F 58% 30.14 in 10.0 mi Calm Calm - N/A   Overcast
7:53 PM 44.1 °F - 33.1 °F 65% 30.13 in 10.0 mi Calm Calm - N/A   Overcast
8:53 PM 43.0 °F - 33.1 °F 68% 30.13 in 10.0 mi Calm Calm - N/A   Overcast
9:53 PM 41.0 °F - 34.0 °F 76% 30.14 in 10.0 mi Calm Calm - N/A   Overcast
10:53 PM 41.0 °F - 34.0 °F 76% 30.16 in 10.0 mi Calm Calm - N/A   Overcast
11:38 PM 42.1 °F 36.6 °F 30.0 °F 62% 30.15 in 10.0 mi North 9.2 mph - N/A   Overcast
11:53 PM 41.0 °F 37.1 °F 28.9 °F 62% 30.16 in 10.0 mi North 5.8 mph - N/A   Overcast